Location: Gouvernes
(48.8601°N, 2.6907°E)
Time: 22:51:45
(UTC+00:00)

Cosmos 1174 - Pass Details

Date: 16 October 2021
Orbit: 373 x 1139 km, 66.1° (Epoch: 07 December)

Event Time Altitude Azimuth Distance (km) Brightness Sun altitude
Rises 18:59:03 0° 229° (SW) 2,409 7.7 -20.7°
Reaches altitude 10° 19:01:16 10° 236° (WSW) 1,474 6.6 -21.1°
Maximum altitude 19:04:19 44° 310° (NW) 549 4.2 -21.6°
Enters shadow 19:04:35 42° 328° (NNW) 560 4.1 -21.6°
